Time,TemperatureF,DewpointF,PressureIn,WindDirection,WindDirectionDegrees,WindSpeedMPH,WindSpeedGustMPH,Humidity,HourlyPrecipIn,Conditions,Clouds,dailyrainin,SoftwareType,DateUTC
2013-01-28 00:00:00,48.7,41.5,29.96,WNW,293,0.0,1.0,76,0.00,,,0.00,VWS V14.01,2013-01-27 23:00:00,
2013-01-28 00:02:00,49.9,41.6,29.97,NW,309,3.0,5.0,73,0.00,,,0.00,VWS V14.01,2013-01-27 23:02:00,
2013-01-28 00:07:00,49.5,41.6,29.97,NW,309,0.0,5.0,74,0.00,,,0.00,VWS V14.01,2013-01-27 23:07:00,
2013-01-28 00:10:00,49.6,41.7,29.97,WNW,293,0.0,6.0,74,0.00,,,0.00,VWS V14.01,2013-01-27 23:10:00,
2013-01-28 00:12:00,49.5,41.6,29.97,WNW,293,3.0,6.0,74,0.00,,,0.00,VWS V14.01,2013-01-27 23:12:00,
2013-01-28 00:17:00,49.6,41.7,29.97,WNW,293,0.0,0.0,74,0.00,,,0.00,VWS V14.01,2013-01-27 23:17:00,
2013-01-28 00:20:00,49.4,41.5,29.97,WNW,293,0.0,1.0,74,0.00,,,0.00,VWS V14.01,2013-01-27 23:20:00,
2013-01-28 00:22:00,49.5,41.6,29.97,WNW,293,0.0,1.0,74,0.00,,,0.00,VWS V14.01,2013-01-27 23:22:00,
2013-01-28 00:27:00,49.4,41.5,29.97,WNW,293,0.0,0.0,74,0.00,,,0.00,VWS V14.01,2013-01-27 23:27:00,
2013-01-28 00:30:00,49.2,41.6,29.97,WNW,293,2.0,2.0,75,0.00,,,0.00,VWS V14.01,2013-01-27 23:30:00,
2013-01-28 00:32:00,49.3,41.7,29.97,WNW,293,0.0,0.0,75,0.00,,,0.00,VWS V14.01,2013-01-27 23:32:00,
2013-01-28 00:37:00,49.1,41.5,29.97,WNW,293,0.0,2.0,75,0.00,,,0.00,VWS V14.01,2013-01-27 23:37:00,
2013-01-28 00:40:00,49.0,41.4,29.97,WNW,293,0.0,2.0,75,0.00,,,0.00,VWS V14.01,2013-01-27 23:40:00,
2013-01-28 00:42:00,48.9,41.3,29.97,WNW,293,0.0,2.0,75,0.00,,,0.00,VWS V14.01,2013-01-27 23:42:00,
2013-01-28 00:47:00,49.0,41.4,29.97,WNW,293,0.0,0.0,75,0.00,,,0.00,VWS V14.01,2013-01-27 23:47:00,
2013-01-28 00:50:00,48.9,41.7,29.96,WNW,293,0.0,1.0,76,0.00,,,0.00,VWS V14.01,2013-01-27 23:50:00,
2013-01-28 00:52:00,48.9,41.3,29.97,WNW,293,0.0,1.0,75,0.00,,,0.00,VWS V14.01,2013-01-27 23:52:00,
2013-01-28 00:57:00,48.8,41.2,29.96,WNW,293,0.0,0.0,75,0.00,,,0.00,VWS V14.01,2013-01-27 23:57:00,
2013-01-28 01:00:00,48.7,41.5,29.96,WNW,293,0.0,1.0,76,0.00,,,0.00,VWS V14.01,2013-01-28 00:00:00,
2013-01-28 01:02:00,48.6,41.4,29.96,WNW,293,0.0,1.0,76,0.00,,,0.00,VWS V14.01,2013-01-28 00:02:00,
2013-01-28 01:07:00,48.7,41.5,29.96,WNW,293,0.0,0.0,76,0.00,,,0.00,VWS V14.01,2013-01-28 00:07:00,
2013-01-28 01:10:00,48.7,41.5,29.96,WNW,293,0.0,0.0,76,0.00,,,0.00,VWS V14.01,2013-01-28 00:10:00,
2013-01-28 01:13:00,48.7,41.5,29.96,WNW,293,0.0,0.0,76,0.00,,,0.00,VWS V14.01,2013-01-28 00:13:00,
2013-01-28 01:18:00,48.7,41.5,29.96,WNW,293,0.0,0.0,76,0.00,,,0.00,VWS V14.01,2013-01-28 00:18:00,
2013-01-28 01:20:00,48.5,41.3,29.96,WNW,293,0.0,0.0,76,0.00,,,0.00,VWS V14.01,2013-01-28 00:20:00,
2013-01-28 01:23:00,48.6,41.4,29.96,WNW,293,0.0,0.0,76,0.00,,,0.00,VWS V14.01,2013-01-28 00:23:00,
2013-01-28 01:28:00,48.3,41.1,29.96,WNW,293,0.0,0.0,76,0.00,,,0.00,VWS V14.01,2013-01-28 00:28:00,
2013-01-28 01:30:00,47.8,40.6,29.96,WNW,293,0.0,0.0,76,0.00,,,0.00,VWS V14.01,2013-01-28 00:30:00,
2013-01-28 01:33:00,47.8,40.6,29.96,WNW,293,0.0,0.0,76,0.00,,,0.00,VWS V14.01,2013-01-28 00:33:00,
2013-01-28 01:38:00,47.9,40.7,29.96,WNW,293,0.0,0.0,76,0.00,,,0.00,VWS V14.01,2013-01-28 00:38:00,
2013-01-28 01:40:00,48.0,40.8,29.96,WNW,293,0.0,0.0,76,0.00,,,0.00,VWS V14.01,2013-01-28 00:40:00,
2013-01-28 01:43:00,48.0,40.8,29.96,WNW,293,0.0,0.0,76,0.00,,,0.00,VWS V14.01,2013-01-28 00:43:00,
2013-01-28 01:48:00,47.9,40.7,29.96,WNW,293,0.0,0.0,76,0.00,,,0.00,VWS V14.01,2013-01-28 00:48:00,
2013-01-28 01:50:00,47.7,40.5,29.96,WNW,293,0.0,0.0,76,0.00,,,0.00,VWS V14.01,2013-01-28 00:50:00,
2013-01-28 01:53:00,47.8,40.6,29.96,WNW,293,0.0,0.0,76,0.00,,,0.00,VWS V14.01,2013-01-28 00:53:00,
2013-01-28 01:58:00,47.8,40.6,29.96,WNW,293,0.0,0.0,76,0.00,,,0.00,VWS V14.01,2013-01-28 00:58:00,
2013-01-28 02:00:00,47.8,40.6,29.95,WNW,293,0.0,3.0,76,0.00,,,0.00,VWS V14.01,2013-01-28 01:00:00,
2013-01-28 02:03:00,47.7,40.5,29.96,WNW,293,0.0,0.0,76,0.00,,,0.00,VWS V14.01,2013-01-28 01:03:00,
2013-01-28 02:08:00,47.6,40.4,29.96,WNW,293,0.0,0.0,76,0.00,,,0.00,VWS V14.01,2013-01-28 01:08:00,
2013-01-28 02:10:00,47.4,40.2,29.96,WNW,293,2.0,3.0,76,0.00,,,0.00,VWS V14.01,2013-01-28 01:10:00,
2013-01-28 02:13:00,47.4,40.2,29.96,WNW,293,1.0,3.0,76,0.00,,,0.00,VWS V14.01,2013-01-28 01:13:00,
2013-01-28 02:18:00,47.4,40.2,29.96,WNW,293,3.0,3.0,76,0.00,,,0.00,VWS V14.01,2013-01-28 01:18:00,
2013-01-28 02:20:00,47.4,40.2,29.95,WNW,293,2.0,3.0,76,0.00,,,0.00,VWS V14.01,2013-01-28 01:20:00,
2013-01-28 02:23:00,47.3,40.1,29.95,WNW,293,2.0,3.0,76,0.00,,,0.00,VWS V14.01,2013-01-28 01:23:00,
2013-01-28 02:28:00,47.6,40.4,29.95,WNW,293,1.0,3.0,76,0.00,,,0.00,VWS V14.01,2013-01-28 01:28:00,
2013-01-28 02:30:00,47.7,40.5,29.95,WNW,293,2.0,3.0,76,0.00,,,0.00,VWS V14.01,2013-01-28 01:30:00,
2013-01-28 02:33:00,47.6,40.4,29.95,WNW,293,2.0,3.0,76,0.00,,,0.00,VWS V14.01,2013-01-28 01:33:00,
2013-01-28 02:38:00,47.7,40.5,29.95,WNW,293,3.0,3.0,76,0.00,,,0.00,VWS V14.01,2013-01-28 01:38:00,
2013-01-28 02:40:00,47.6,40.4,29.95,WNW,293,2.0,3.0,76,0.00,,,0.00,VWS V14.01,2013-01-28 01:40:00,
2013-01-28 02:43:00,47.6,40.4,29.95,WNW,293,2.0,3.0,76,0.00,,,0.00,VWS V14.01,2013-01-28 01:43:00,
2013-01-28 02:48:00,47.7,40.5,29.95,WNW,293,3.0,3.0,76,0.00,,,0.00,VWS V14.01,2013-01-28 01:48:00,
2013-01-28 02:50:00,47.4,39.9,29.95,WNW,293,2.0,3.0,75,0.00,,,0.00,VWS V14.01,2013-01-28 01:50:00,
2013-01-28 02:53:00,47.5,40.0,29.95,WNW,293,3.0,3.0,75,0.00,,,0.00,VWS V14.01,2013-01-28 01:53:00,
2013-01-28 02:58:00,47.5,40.3,29.95,WNW,293,2.0,3.0,76,0.00,,,0.00,VWS V14.01,2013-01-28 01:58:00,
2013-01-28 03:00:00,47.8,40.6,29.95,WNW,293,0.0,3.0,76,0.00,,,0.00,VWS V14.01,2013-01-28 02:00:00,
2013-01-28 03:03:00,47.8,40.6,29.95,WNW,293,0.0,3.0,76,0.00,,,0.00,VWS V14.01,2013-01-28 02:03:00,
2013-01-28 03:08:00,47.9,40.4,29.95,WNW,293,0.0,0.0,75,0.00,,,0.00,VWS V14.01,2013-01-28 02:08:00,
2013-01-28 03:10:00,48.1,40.6,29.94,WNW,293,2.0,3.0,75,0.00,,,0.00,VWS V14.01,2013-01-28 02:10:00,
2013-01-28 03:13:00,48.1,40.6,29.94,WNW,293,1.0,3.0,75,0.00,,,0.00,VWS V14.01,2013-01-28 02:13:00,
2013-01-28 03:18:00,48.0,40.5,29.94,WNW,293,1.0,3.0,75,0.00,,,0.00,VWS V14.01,2013-01-28 02:18:00,
2013-01-28 03:20:00,48.0,40.5,29.94,WNW,293,2.0,3.0,75,0.00,,,0.00,VWS V14.01,2013-01-28 02:20:00,
2013-01-28 03:23:00,48.0,40.5,29.94,WNW,293,2.0,3.0,75,0.00,,,0.00,VWS V14.01,2013-01-28 02:23:00,
2013-01-28 03:28:00,48.1,40.6,29.94,WNW,293,1.0,2.0,75,0.00,,,0.00,VWS V14.01,2013-01-28 02:28:00,
2013-01-28 03:30:00,48.0,40.5,29.94,WNW,293,1.0,2.0,75,0.00,,,0.00,VWS V14.01,2013-01-28 02:30:00,
2013-01-28 03:33:00,48.0,40.5,29.94,WNW,293,0.0,2.0,75,0.00,,,0.00,VWS V14.01,2013-01-28 02:33:00,
2013-01-28 03:38:00,48.0,40.5,29.94,WNW,293,0.0,2.0,75,0.00,,,0.00,VWS V14.01,2013-01-28 02:38:00,
2013-01-28 03:40:00,47.9,40.4,29.94,WNW,293,0.0,2.0,75,0.00,,,0.00,VWS V14.01,2013-01-28 02:40:00,
2013-01-28 03:43:00,47.9,40.4,29.94,WNW,293,0.0,2.0,75,0.00,,,0.00,VWS V14.01,2013-01-28 02:43:00,
2013-01-28 03:48:00,48.0,40.5,29.94,WNW,293,0.0,0.0,75,0.00,,,0.00,VWS V14.01,2013-01-28 02:48:00,
2013-01-28 03:50:00,48.0,40.1,29.94,WNW,293,0.0,0.0,74,0.00,,,0.00,VWS V14.01,2013-01-28 02:50:00,
2013-01-28 03:53:00,48.0,40.1,29.94,WNW,293,0.0,0.0,74,0.00,,,0.00,VWS V14.01,2013-01-28 02:53:00,
2013-01-28 03:58:00,47.9,40.0,29.93,WNW,293,0.0,0.0,74,0.00,,,0.00,VWS V14.01,2013-01-28 02:58:00,
2013-01-28 04:00:00,47.7,39.8,29.93,WNW,293,0.0,0.0,74,0.00,,,0.00,VWS V14.01,2013-01-28 03:00:00,
2013-01-28 04:03:00,47.8,39.9,29.93,WNW,293,0.0,0.0,74,0.00,,,0.00,VWS V14.01,2013-01-28 03:03:00,
2013-01-28 04:09:00,47.5,39.6,29.93,WNW,293,0.0,1.0,74,0.00,,,0.00,VWS V14.01,2013-01-28 03:09:00,
2013-01-28 04:10:00,47.7,39.8,29.93,WNW,293,0.0,1.0,74,0.00,,,0.00,VWS V14.01,2013-01-28 03:10:00,
2013-01-28 04:13:00,47.7,39.8,29.93,WNW,293,0.0,1.0,74,0.00,,,0.00,VWS V14.01,2013-01-28 03:13:00,
2013-01-28 04:18:00,47.7,39.8,29.93,WNW,293,0.0,2.0,74,0.00,,,0.00,VWS V14.01,2013-01-28 03:18:00,
2013-01-28 04:20:00,47.6,39.7,29.93,WNW,293,0.0,2.0,74,0.00,,,0.00,VWS V14.01,2013-01-28 03:20:00,
2013-01-28 04:24:00,47.6,39.7,29.93,WNW,293,0.0,2.0,74,0.00,,,0.00,VWS V14.01,2013-01-28 03:24:00,
2013-01-28 04:29:00,47.6,39.7,29.93,WNW,293,0.0,0.0,74,0.00,,,0.00,VWS V14.01,2013-01-28 03:29:00,
2013-01-28 04:30:00,47.5,39.6,29.93,WNW,293,0.0,0.0,74,0.00,,,0.00,VWS V14.01,2013-01-28 03:30:00,
2013-01-28 04:34:00,47.5,39.6,29.93,WNW,293,0.0,0.0,74,0.00,,,0.00,VWS V14.01,2013-01-28 03:34:00,
2013-01-28 04:39:00,47.7,39.8,29.93,WNW,293,0.0,2.0,74,0.00,,,0.00,VWS V14.01,2013-01-28 03:39:00,
2013-01-28 04:40:00,47.8,39.9,29.93,WNW,293,1.0,2.0,74,0.00,,,0.00,VWS V14.01,2013-01-28 03:40:00,
2013-01-28 04:44:00,47.7,39.8,29.93,WNW,293,1.0,2.0,74,0.00,,,0.00,VWS V14.01,2013-01-28 03:44:00,
2013-01-28 04:49:00,47.9,39.7,29.92,WNW,293,1.0,2.0,73,0.00,,,0.00,VWS V14.01,2013-01-28 03:49:00,
2013-01-28 04:50:00,47.9,40.0,29.92,WNW,293,1.0,2.0,74,0.00,,,0.00,VWS V14.01,2013-01-28 03:50:00,
2013-01-28 04:54:00,47.9,40.0,29.92,WNW,293,2.0,2.0,74,0.00,,,0.00,VWS V14.01,2013-01-28 03:54:00,
2013-01-28 04:59:00,47.9,39.7,29.92,WNW,293,1.0,2.0,73,0.00,,,0.00,VWS V14.01,2013-01-28 03:59:00,
2013-01-28 05:00:00,48.0,40.5,29.91,WNW,293,3.0,3.0,75,0.00,,,0.00,VWS V14.01,2013-01-28 04:00:00,
2013-01-28 05:04:00,48.0,39.8,29.92,WNW,293,1.0,2.0,73,0.00,,,0.00,VWS V14.01,2013-01-28 04:04:00,
2013-01-28 05:09:00,47.9,39.7,29.92,WNW,293,0.0,2.0,73,0.00,,,0.00,VWS V14.01,2013-01-28 04:09:00,
2013-01-28 05:10:00,47.9,40.0,29.92,WNW,293,0.0,2.0,74,0.00,,,0.00,VWS V14.01,2013-01-28 04:10:00,
2013-01-28 05:14:00,47.8,39.9,29.92,WNW,293,0.0,2.0,74,0.00,,,0.00,VWS V14.01,2013-01-28 04:14:00,
2013-01-28 05:19:00,48.0,40.1,29.92,WNW,293,0.0,0.0,74,0.00,,,0.00,VWS V14.01,2013-01-28 04:19:00,
2013-01-28 05:20:00,48.1,40.2,29.92,WNW,293,0.0,0.0,74,0.00,,,0.00,VWS V14.01,2013-01-28 04:20:00,
2013-01-28 05:24:00,48.1,40.2,29.92,WNW,293,0.0,0.0,74,0.00,,,0.00,VWS V14.01,2013-01-28 04:24:00,
2013-01-28 05:29:00,48.1,40.2,29.92,WNW,293,0.0,0.0,74,0.00,,,0.00,VWS V14.01,2013-01-28 04:29:00,
2013-01-28 05:30:00,47.9,40.4,29.92,WNW,293,0.0,0.0,75,0.00,,,0.00,VWS V14.01,2013-01-28 04:30:00,
2013-01-28 05:34:00,47.9,40.4,29.92,WNW,293,0.0,0.0,75,0.00,,,0.00,VWS V14.01,2013-01-28 04:34:00,
2013-01-28 05:39:00,47.9,40.4,29.91,WNW,293,0.0,0.0,75,0.00,,,0.00,VWS V14.01,2013-01-28 04:39:00,
2013-01-28 05:40:00,48.1,40.6,29.92,WNW,293,0.0,0.0,75,0.00,,,0.00,VWS V14.01,2013-01-28 04:40:00,
2013-01-28 05:44:00,48.1,40.6,29.92,WNW,293,0.0,0.0,75,0.00,,,0.00,VWS V14.01,2013-01-28 04:44:00,
2013-01-28 05:49:00,48.2,40.3,29.91,WNW,293,0.0,0.0,74,0.00,,,0.00,VWS V14.01,2013-01-28 04:49:00,
2013-01-28 05:50:00,48.1,40.6,29.91,WNW,293,0.0,0.0,75,0.00,,,0.00,VWS V14.01,2013-01-28 04:50:00,
2013-01-28 05:54:00,48.1,40.6,29.91,WNW,293,0.0,0.0,75,0.00,,,0.00,VWS V14.01,2013-01-28 04:54:00,
2013-01-28 05:59:00,48.0,40.5,29.91,WNW,293,0.0,0.0,75,0.00,,,0.00,VWS V14.01,2013-01-28 04:59:00,
2013-01-28 06:00:00,48.0,40.5,29.91,WNW,293,0.0,0.0,75,0.00,,,0.00,VWS V14.01,2013-01-28 05:00:00,
2013-01-28 06:01:00,48.1,40.6,29.91,WNW,293,0.0,0.0,75,0.00,,,0.00,VWS V14.01,2013-01-28 05:01:00,
2013-01-28 06:02:00,48.1,40.6,29.91,WNW,293,0.0,0.0,75,0.00,,,0.00,VWS V14.01,2013-01-28 05:02:00,
2013-01-28 06:03:00,48.1,40.6,29.91,WNW,293,0.0,0.0,75,0.00,,,0.00,VWS V14.01,2013-01-28 05:03:00,
2013-01-28 06:08:00,48.2,40.7,29.91,WNW,293,4.0,4.0,75,0.00,,,0.00,VWS V14.01,2013-01-28 05:08:00,
2013-01-28 06:10:00,48.4,40.8,29.91,WNW,293,4.0,4.0,75,0.00,,,0.00,VWS V14.01,2013-01-28 05:10:00,
2013-01-28 06:13:00,48.3,40.8,29.91,WNW,293,3.0,4.0,75,0.00,,,0.00,VWS V14.01,2013-01-28 05:13:00,
2013-01-28 06:18:00,48.3,41.1,29.91,WNW,293,3.0,4.0,76,0.00,,,0.00,VWS V14.01,2013-01-28 05:18:00,
2013-01-28 06:20:00,48.4,40.8,29.91,WNW,293,3.0,4.0,75,0.00,,,0.00,VWS V14.01,2013-01-28 05:20:00,
2013-01-28 06:23:00,48.4,40.8,29.91,WNW,293,3.0,4.0,75,0.00,,,0.00,VWS V14.01,2013-01-28 05:23:00,
2013-01-28 06:28:00,48.4,40.5,29.91,WNW,293,2.0,3.0,74,0.00,,,0.00,VWS V14.01,2013-01-28 05:28:00,
2013-01-28 06:30:00,48.4,40.5,29.91,WNW,294,2.0,3.0,74,0.00,,,0.00,VWS V14.01,2013-01-28 05:30:00,
2013-01-28 06:33:00,48.4,40.5,29.91,WNW,294,2.0,3.0,74,0.00,,,0.00,VWS V14.01,2013-01-28 05:33:00,
2013-01-28 06:38:00,48.4,40.5,29.91,WNW,294,2.0,3.0,74,0.00,,,0.00,VWS V14.01,2013-01-28 05:38:00,
2013-01-28 06:40:00,48.5,40.2,29.91,WNW,294,3.0,3.0,73,0.00,,,0.00,VWS V14.01,2013-01-28 05:40:00,
2013-01-28 06:43:00,48.5,40.2,29.91,WNW,294,3.0,3.0,73,0.00,,,0.00,VWS V14.01,2013-01-28 05:43:00,
2013-01-28 06:48:00,48.5,39.9,29.91,WNW,294,1.0,3.0,72,0.00,,,0.00,VWS V14.01,2013-01-28 05:48:00,
2013-01-28 06:50:00,48.7,40.1,29.91,WNW,294,2.0,3.0,72,0.00,,,0.00,VWS V14.01,2013-01-28 05:50:00,
2013-01-28 06:53:00,48.7,40.1,29.91,WNW,294,1.0,3.0,72,0.00,,,0.00,VWS V14.01,2013-01-28 05:53:00,
2013-01-28 06:58:00,48.7,40.1,29.91,WNW,294,3.0,3.0,72,0.00,,,0.00,VWS V14.01,2013-01-28 05:58:00,
2013-01-28 07:00:00,48.6,40.0,29.91,WNW,294,3.0,3.0,72,0.00,,,0.00,VWS V14.01,2013-01-28 06:00:00,
2013-01-28 07:03:00,48.7,40.1,29.91,WNW,294,3.0,3.0,72,0.00,,,0.00,VWS V14.01,2013-01-28 06:03:00,
2013-01-28 07:08:00,48.5,39.9,29.91,WNW,294,4.0,4.0,72,0.00,,,0.00,VWS V14.01,2013-01-28 06:08:00,
2013-01-28 07:10:00,48.4,40.2,29.91,East,97,7.0,7.0,73,0.00,,,0.00,VWS V14.01,2013-01-28 06:10:00,
2013-01-28 07:13:00,48.4,40.2,29.91,East,92,6.0,6.0,73,0.00,,,0.00,VWS V14.01,2013-01-28 06:13:00,
2013-01-28 07:18:00,48.3,40.4,29.91,East,100,6.0,8.0,74,0.00,,,0.00,VWS V14.01,2013-01-28 06:18:00,
2013-01-28 07:20:00,48.3,40.8,29.90,East,96,3.0,8.0,75,0.00,,,0.00,VWS V14.01,2013-01-28 06:20:00,
2013-01-28 07:23:00,48.2,40.3,29.90,East,96,6.0,8.0,74,0.00,,,0.00,VWS V14.01,2013-01-28 06:23:00,
2013-01-28 07:28:00,48.3,40.8,29.90,East,98,5.0,6.0,75,0.00,,,0.00,VWS V14.01,2013-01-28 06:28:00,
2013-01-28 07:30:00,48.7,41.1,29.90,ESE,102,4.0,7.0,75,0.00,,,0.00,VWS V14.01,2013-01-28 06:30:00,
2013-01-28 07:33:00,48.6,41.0,29.90,ESE,102,5.0,7.0,75,0.00,,,0.00,VWS V14.01,2013-01-28 06:33:00,
2013-01-28 07:38:00,48.7,41.1,29.90,East,101,2.0,6.0,75,0.00,,,0.00,VWS V14.01,2013-01-28 06:38:00,
2013-01-28 07:40:00,48.6,41.0,29.90,East,101,1.0,6.0,75,0.00,,,0.00,VWS V14.01,2013-01-28 06:40:00,
2013-01-28 07:43:00,48.6,41.0,29.90,East,101,2.0,6.0,75,0.00,,,0.00,VWS V14.01,2013-01-28 06:43:00,
2013-01-28 07:48:00,48.6,41.0,29.90,East,101,2.0,3.0,75,0.00,,,0.00,VWS V14.01,2013-01-28 06:48:00,
2013-01-28 07:50:00,48.8,41.2,29.90,ESE,108,5.0,7.0,75,0.00,,,0.00,VWS V14.01,2013-01-28 06:50:00,
2013-01-28 07:53:00,48.7,41.1,29.90,ESE,105,4.0,5.0,75,0.00,,,0.00,VWS V14.01,2013-01-28 06:53:00,
2013-01-28 07:58:00,49.0,41.4,29.90,ESE,115,4.0,5.0,75,0.00,,,0.00,VWS V14.01,2013-01-28 06:58:00,
2013-01-28 08:00:00,49.1,41.5,29.91,SE,127,2.0,5.0,75,0.00,,,0.00,VWS V14.01,2013-01-28 07:00:00,
2013-01-28 08:03:00,49.1,41.5,29.91,SE,127,3.0,5.0,75,0.00,,,0.00,VWS V14.01,2013-01-28 07:03:00,
2013-01-28 08:09:00,49.4,41.5,29.90,SSE,159,3.0,7.0,74,0.00,,,0.00,VWS V14.01,2013-01-28 07:09:00,
2013-01-28 08:10:00,49.5,41.2,29.91,SSE,159,2.0,7.0,73,0.00,,,0.00,VWS V14.01,2013-01-28 07:10:00,
2013-01-28 08:14:00,49.5,41.2,29.91,SSE,159,1.0,7.0,73,0.00,,,0.00,VWS V14.01,2013-01-28 07:14:00,
2013-01-28 08:19:00,49.7,41.4,29.90,SSE,157,3.0,8.0,73,0.00,,,0.00,VWS V14.01,2013-01-28 07:19:00,
2013-01-28 08:20:00,49.8,41.2,29.90,SSE,157,2.0,8.0,72,0.00,,,0.00,VWS V14.01,2013-01-28 07:20:00,
2013-01-28 08:24:00,49.8,41.5,29.90,SSE,157,4.0,8.0,73,0.00,,,0.00,VWS V14.01,2013-01-28 07:24:00,
2013-01-28 08:29:00,49.9,41.2,29.90,SSE,157,3.0,3.0,72,0.00,,,0.00,VWS V14.01,2013-01-28 07:29:00,
2013-01-28 08:30:00,50.2,41.2,29.90,South,178,7.0,7.0,71,0.00,,,0.00,VWS V14.01,2013-01-28 07:30:00,
2013-01-28 08:34:00,50.1,41.1,29.90,SSE,163,4.0,6.0,71,0.00,,,0.00,VWS V14.01,2013-01-28 07:34:00,
2013-01-28 08:39:00,50.5,41.1,29.90,SSE,165,7.0,11.0,70,0.00,,,0.00,VWS V14.01,2013-01-28 07:39:00,
2013-01-28 08:40:00,50.6,40.4,29.90,SSE,163,3.0,11.0,68,0.00,,,0.00,VWS V14.01,2013-01-28 07:40:00,
2013-01-28 08:44:00,50.6,40.4,29.90,SSE,163,5.0,11.0,68,0.00,,,0.00,VWS V14.01,2013-01-28 07:44:00,
2013-01-28 08:49:00,50.7,40.5,29.90,South,173,3.0,5.0,68,0.00,,,0.00,VWS V14.01,2013-01-28 07:49:00,
2013-01-28 08:50:00,50.8,40.6,29.90,South,169,3.0,10.0,68,0.00,,,0.00,VWS V14.01,2013-01-28 07:50:00,
2013-01-28 08:54:00,50.8,40.6,29.90,South,169,3.0,10.0,68,0.00,,,0.00,VWS V14.01,2013-01-28 07:54:00,
2013-01-28 08:59:00,50.9,40.7,29.90,South,169,5.0,9.0,68,0.00,,,0.00,VWS V14.01,2013-01-28 07:59:00,
2013-01-28 09:00:00,51.0,40.4,29.90,SSW,198,7.0,11.0,67,0.00,,,0.00,VWS V14.01,2013-01-28 08:00:00,
2013-01-28 09:04:00,51.0,40.4,29.90,South,188,8.0,11.0,67,0.00,,,0.00,VWS V14.01,2013-01-28 08:04:00,
2013-01-28 09:09:00,51.1,40.5,29.90,South,169,9.0,10.0,67,0.00,,,0.00,VWS V14.01,2013-01-28 08:09:00,
2013-01-28 09:10:00,51.1,40.5,29.90,South,182,6.0,12.0,67,0.00,,,0.00,VWS V14.01,2013-01-28 08:10:00,
2013-01-28 09:14:00,51.1,40.5,29.90,South,182,5.0,12.0,67,0.00,,,0.00,VWS V14.01,2013-01-28 08:14:00,
2013-01-28 09:19:00,51.1,40.5,29.90,SSE,168,5.0,11.0,67,0.00,,,0.00,VWS V14.01,2013-01-28 08:19:00,
2013-01-28 09:20:00,51.2,40.6,29.91,South,184,5.0,11.0,67,0.00,,,0.00,VWS V14.01,2013-01-28 08:20:00,
2013-01-28 09:24:00,51.2,40.6,29.91,SSE,158,4.0,11.0,67,0.00,,,0.00,VWS V14.01,2013-01-28 08:24:00,
2013-01-28 09:29:00,51.2,40.6,29.91,South,190,9.0,9.0,67,0.00,,,0.00,VWS V14.01,2013-01-28 08:29:00,
2013-01-28 09:30:00,51.2,40.6,29.90,SSW,211,4.0,10.0,67,0.00,,,0.00,VWS V14.01,2013-01-28 08:30:00,
2013-01-28 09:34:00,51.2,40.6,29.91,SW,214,5.0,10.0,67,0.00,,,0.00,VWS V14.01,2013-01-28 08:34:00,
2013-01-28 09:39:00,51.2,40.2,29.90,South,191,7.0,10.0,66,0.00,,,0.00,VWS V14.01,2013-01-28 08:39:00,
2013-01-28 09:40:00,51.4,40.4,29.90,South,178,6.0,12.0,66,0.00,,,0.00,VWS V14.01,2013-01-28 08:40:00,
2013-01-28 09:44:00,51.4,40.4,29.90,South,178,6.0,12.0,66,0.00,,,0.00,VWS V14.01,2013-01-28 08:44:00,
2013-01-28 09:49:00,51.4,40.4,29.90,SSW,193,4.0,10.0,66,0.00,,,0.00,VWS V14.01,2013-01-28 08:49:00,
2013-01-28 09:50:00,51.4,40.8,29.90,South,186,4.0,10.0,67,0.00,,,0.00,VWS V14.01,2013-01-28 08:50:00,
2013-01-28 09:54:00,51.4,40.8,29.90,South,186,4.0,10.0,67,0.00,,,0.00,VWS V14.01,2013-01-28 08:54:00,
2013-01-28 09:59:00,51.4,40.8,29.90,South,184,3.0,8.0,67,0.00,,,0.00,VWS V14.01,2013-01-28 08:59:00,
2013-01-28 10:00:00,51.4,41.2,29.90,SE,142,6.0,10.0,68,0.00,,,0.00,VWS V14.01,2013-01-28 09:00:00,
2013-01-28 10:04:00,51.4,41.2,29.90,SSE,160,7.0,10.0,68,0.00,,,0.00,VWS V14.01,2013-01-28 09:04:00,
2013-01-28 10:09:00,51.4,41.2,29.90,SSE,149,5.0,12.0,68,0.00,,,0.00,VWS V14.01,2013-01-28 09:09:00,
2013-01-28 10:10:00,51.4,41.2,29.90,SSE,148,5.0,12.0,68,0.00,,,0.00,VWS V14.01,2013-01-28 09:10:00,
2013-01-28 10:14:00,51.4,41.2,29.90,SSE,148,5.0,12.0,68,0.00,,,0.00,VWS V14.01,2013-01-28 09:14:00,
2013-01-28 10:19:00,51.5,41.3,29.90,South,171,8.0,12.0,68,0.00,,,0.00,VWS V14.01,2013-01-28 09:19:00,
2013-01-28 10:20:00,51.5,41.7,29.90,South,185,6.0,12.0,69,0.00,,,0.00,VWS V14.01,2013-01-28 09:20:00,
2013-01-28 10:24:00,51.5,41.7,29.90,South,185,6.0,12.0,69,0.00,,,0.00,VWS V14.01,2013-01-28 09:24:00,
2013-01-28 10:29:00,51.6,41.4,29.90,SSE,159,4.0,11.0,68,0.00,,,0.00,VWS V14.01,2013-01-28 09:29:00,
2013-01-28 10:30:00,51.7,41.5,29.90,SSE,166,6.0,11.0,68,0.00,,,0.00,VWS V14.01,2013-01-28 09:30:00,
2013-01-28 10:34:00,51.7,41.5,29.90,SSE,166,6.0,11.0,68,0.00,,,0.00,VWS V14.01,2013-01-28 09:34:00,
2013-01-28 10:39:00,51.7,41.9,29.90,SSE,161,6.0,11.0,69,0.00,,,0.00,VWS V14.01,2013-01-28 09:39:00,
2013-01-28 10:40:00,51.7,41.5,29.90,SE,132,5.0,12.0,68,0.00,,,0.00,VWS V14.01,2013-01-28 09:40:00,
2013-01-28 10:44:00,51.7,41.5,29.90,SE,132,5.0,12.0,68,0.00,,,0.00,VWS V14.01,2013-01-28 09:44:00,
2013-01-28 10:49:00,51.8,41.6,29.90,SSE,152,4.0,11.0,68,0.00,,,0.00,VWS V14.01,2013-01-28 09:49:00,
2013-01-28 10:50:00,51.8,41.6,29.90,South,178,5.0,11.0,68,0.00,,,0.00,VWS V14.01,2013-01-28 09:50:00,
2013-01-28 10:54:00,51.8,41.6,29.90,South,178,5.0,11.0,68,0.00,,,0.00,VWS V14.01,2013-01-28 09:54:00,
2013-01-28 10:59:00,51.8,41.6,29.90,SSE,157,7.0,9.0,68,0.00,,,0.00,VWS V14.01,2013-01-28 09:59:00,
2013-01-28 11:00:00,51.7,41.1,29.90,South,180,4.0,9.0,67,0.00,,,0.00,VWS V14.01,2013-01-28 10:00:00,
2013-01-28 11:04:00,51.7,41.1,29.90,South,180,5.0,9.0,67,0.00,,,0.00,VWS V14.01,2013-01-28 10:04:00,
2013-01-28 11:10:00,51.8,41.6,29.90,South,169,4.0,11.0,68,0.00,,,0.00,VWS V14.01,2013-01-28 10:10:00,
2013-01-28 11:15:00,51.8,41.6,29.90,SSE,160,4.0,6.0,68,0.00,,,0.00,VWS V14.01,2013-01-28 10:15:00,
2013-01-28 11:20:00,51.9,41.7,29.90,SSE,149,6.0,6.0,68,0.00,,,0.00,VWS V14.01,2013-01-28 10:20:00,
2013-01-28 11:25:00,51.9,41.7,29.89,SE,137,5.0,8.0,68,0.00,,,0.00,VWS V14.01,2013-01-28 10:25:00,
2013-01-28 11:30:00,51.9,42.1,29.89,SE,133,4.0,10.0,69,0.00,,,0.00,VWS V14.01,2013-01-28 10:30:00,
2013-01-28 11:35:00,51.9,42.1,29.89,SE,138,8.0,8.0,69,0.00,,,0.00,VWS V14.01,2013-01-28 10:35:00,
2013-01-28 11:40:00,52.0,42.2,29.89,SSE,153,5.0,9.0,69,0.00,,,0.00,VWS V14.01,2013-01-28 10:40:00,
2013-01-28 11:45:00,52.0,42.2,29.89,SE,132,8.0,8.0,69,0.00,,,0.00,VWS V14.01,2013-01-28 10:45:00,
2013-01-28 11:50:00,52.1,41.9,29.88,SE,144,7.0,12.0,68,0.00,,,0.00,VWS V14.01,2013-01-28 10:50:00,
2013-01-28 11:55:00,52.2,42.0,29.88,SE,135,8.0,11.0,68,0.00,,,0.00,VWS V14.01,2013-01-28 10:55:00,
2013-01-28 12:00:00,52.3,42.5,29.88,SSE,147,10.0,12.0,69,0.00,,,0.00,VWS V14.01,2013-01-28 11:00:00,
2013-01-28 12:01:00,52.3,42.1,29.88,SE,144,8.0,12.0,68,0.00,,,0.00,VWS V14.01,2013-01-28 11:01:00,
2013-01-28 12:06:00,52.3,42.5,29.88,SE,135,8.0,11.0,69,0.00,,,0.00,VWS V14.01,2013-01-28 11:06:00,
2013-01-28 12:10:00,52.2,42.7,29.88,SE,127,7.0,14.0,70,0.00,,,0.00,VWS V14.01,2013-01-28 11:10:00,
2013-01-28 12:11:00,52.2,42.7,29.88,SSE,162,11.0,14.0,70,0.00,,,0.00,VWS V14.01,2013-01-28 11:11:00,
2013-01-28 12:16:00,52.2,42.7,29.87,SSE,159,11.0,11.0,70,0.00,,,0.00,VWS V14.01,2013-01-28 11:16:00,
2013-01-28 12:20:00,52.3,42.8,29.87,South,180,4.0,11.0,70,0.00,,,0.00,VWS V14.01,2013-01-28 11:20:00,
2013-01-28 12:21:00,52.3,42.8,29.87,South,191,3.0,11.0,70,0.00,,,0.00,VWS V14.01,2013-01-28 11:21:00,
2013-01-28 12:26:00,52.3,42.8,29.87,South,169,8.0,8.0,70,0.00,,,0.00,VWS V14.01,2013-01-28 11:26:00,
2013-01-28 12:30:00,52.4,42.9,29.87,SE,134,9.0,12.0,70,0.00,,,0.00,VWS V14.01,2013-01-28 11:30:00,
2013-01-28 12:31:00,52.4,42.9,29.87,ESE,119,9.0,9.0,70,0.00,,,0.00,VWS V14.01,2013-01-28 11:31:00,
2013-01-28 12:36:00,52.3,42.5,29.87,South,170,9.0,12.0,69,0.00,,,0.00,VWS V14.01,2013-01-28 11:36:00,
2013-01-28 12:40:00,52.3,42.5,29.86,SSE,165,9.0,12.0,69,0.00,,,0.00,VWS V14.01,2013-01-28 11:40:00,
2013-01-28 12:41:00,52.3,42.5,29.87,SE,138,11.0,12.0,69,0.00,,,0.00,VWS V14.01,2013-01-28 11:41:00,
2013-01-28 12:46:00,52.3,42.5,29.86,SSE,147,2.0,9.0,69,0.00,,,0.00,VWS V14.01,2013-01-28 11:46:00,
2013-01-28 12:50:00,52.6,42.3,29.86,SE,141,7.0,11.0,68,0.00,,,0.00,VWS V14.01,2013-01-28 11:50:00,
2013-01-28 12:51:00,52.5,42.3,29.86,ESE,112,8.0,11.0,68,0.00,,,0.00,VWS V14.01,2013-01-28 11:51:00,
2013-01-28 12:56:00,52.6,42.3,29.86,ESE,117,8.0,9.0,68,0.00,,,0.00,VWS V14.01,2013-01-28 11:56:00,
2013-01-28 13:00:00,52.6,42.3,29.86,SE,134,11.0,13.0,68,0.00,,,0.00,VWS V14.01,2013-01-28 12:00:00,
2013-01-28 13:01:00,52.7,42.5,29.86,SE,139,7.0,13.0,68,0.00,,,0.00,VWS V14.01,2013-01-28 12:01:00,
2013-01-28 13:06:00,52.6,42.0,29.86,SSE,159,9.0,12.0,67,0.00,,,0.00,VWS V14.01,2013-01-28 12:06:00,
2013-01-28 13:10:00,52.8,42.5,29.86,ESE,123,5.0,12.0,68,0.00,,,0.00,VWS V14.01,2013-01-28 12:10:00,
2013-01-28 13:11:00,52.7,42.5,29.86,ESE,119,1.0,12.0,68,0.00,,,0.00,VWS V14.01,2013-01-28 12:11:00,
2013-01-28 13:16:00,52.8,42.5,29.85,SE,144,7.0,9.0,68,0.00,,,0.00,VWS V14.01,2013-01-28 12:16:00,
2013-01-28 13:20:00,52.5,42.3,29.85,ESE,114,7.0,10.0,68,0.00,,,0.00,VWS V14.01,2013-01-28 12:20:00,
2013-01-28 13:21:00,52.7,42.5,29.85,SE,133,6.0,10.0,68,0.00,,,0.00,VWS V14.01,2013-01-28 12:21:00,
2013-01-28 13:26:00,52.4,42.2,29.85,SE,135,6.0,8.0,68,0.00,,,0.00,VWS V14.01,2013-01-28 12:26:00,
2013-01-28 13:30:00,51.7,41.9,29.85,SE,128,3.0,10.0,69,0.00,,,0.00,VWS V14.01,2013-01-28 12:30:00,
2013-01-28 13:31:00,51.9,42.1,29.85,East,101,10.0,10.0,69,0.00,,,0.00,VWS V14.01,2013-01-28 12:31:00,
2013-01-28 13:36:00,51.7,42.2,29.85,ESE,105,8.0,12.0,70,0.00,,,0.00,VWS V14.01,2013-01-28 12:36:00,
2013-01-28 13:40:00,51.5,42.0,29.85,ESE,117,5.0,12.0,70,0.00,,,0.00,VWS V14.01,2013-01-28 12:40:00,
2013-01-28 13:41:00,51.6,42.2,29.85,SSE,150,2.0,12.0,70,0.00,,,0.00,VWS V14.01,2013-01-28 12:41:00,
2013-01-28 13:46:00,51.4,42.0,29.85,SE,128,3.0,12.0,70,0.00,,,0.00,VWS V14.01,2013-01-28 12:46:00,
2013-01-28 13:50:00,51.4,42.3,29.85,SE,134,3.0,12.0,71,0.00,,,0.00,VWS V14.01,2013-01-28 12:50:00,
2013-01-28 13:51:00,51.4,42.3,29.85,SE,132,4.0,12.0,71,0.00,,,0.00,VWS V14.01,2013-01-28 12:51:00,
2013-01-28 13:56:00,51.4,42.3,29.85,SE,134,4.0,5.0,71,0.00,,,0.00,VWS V14.01,2013-01-28 12:56:00,
2013-01-28 14:00:00,51.3,42.6,29.85,ESE,107,3.0,9.0,72,0.00,,,0.00,VWS V14.01,2013-01-28 13:00:00,
2013-01-28 14:01:00,51.4,42.3,29.85,SE,134,4.0,9.0,71,0.00,,,0.00,VWS V14.01,2013-01-28 13:01:00,
2013-01-28 14:06:00,51.2,42.5,29.85,SE,144,1.0,8.0,72,0.00,,,0.00,VWS V14.01,2013-01-28 13:06:00,
2013-01-28 14:10:00,50.9,42.2,29.85,SE,128,4.0,9.0,72,0.00,,,0.00,VWS V14.01,2013-01-28 13:10:00,
2013-01-28 14:11:00,51.0,42.3,29.85,SE,136,6.0,8.0,72,0.00,,,0.00,VWS V14.01,2013-01-28 13:11:00,
2013-01-28 14:16:00,50.8,42.1,29.85,SE,136,2.0,8.0,72,0.00,,,0.00,VWS V14.01,2013-01-28 13:16:00,
2013-01-28 14:20:00,50.5,42.2,29.85,SE,143,9.0,12.0,73,0.01,,,0.01,VWS V14.01,2013-01-28 13:20:00,
2013-01-28 14:21:00,50.7,42.4,29.85,ESE,111,2.0,12.0,73,0.01,,,0.01,VWS V14.01,2013-01-28 13:21:00,
2013-01-28 14:26:00,50.5,42.2,29.85,ESE,117,4.0,11.0,73,0.01,,,0.01,VWS V14.01,2013-01-28 13:26:00,
2013-01-28 14:30:00,50.2,42.2,29.85,SE,126,5.0,11.0,74,0.01,,,0.01,VWS V14.01,2013-01-28 13:30:00,
2013-01-28 14:31:00,50.3,42.3,29.85,ESE,115,7.0,11.0,74,0.01,,,0.01,VWS V14.01,2013-01-28 13:31:00,
2013-01-28 14:36:00,50.2,42.2,29.85,SE,138,4.0,6.0,74,0.01,,,0.01,VWS V14.01,2013-01-28 13:36:00,
2013-01-28 14:40:00,49.9,42.7,29.85,ESE,123,5.0,8.0,76,0.01,,,0.01,VWS V14.01,2013-01-28 13:40:00,
2013-01-28 14:41:00,50.0,42.4,29.85,SE,125,4.0,8.0,75,0.01,,,0.01,VWS V14.01,2013-01-28 13:41:00,
2013-01-28 14:46:00,49.8,42.5,29.85,ESE,112,7.0,11.0,76,0.02,,,0.02,VWS V14.01,2013-01-28 13:46:00,
2013-01-28 14:50:00,49.6,42.4,29.85,ESE,119,8.0,11.0,76,0.02,,,0.02,VWS V14.01,2013-01-28 13:50:00,
2013-01-28 14:51:00,49.6,42.4,29.85,East,98,5.0,11.0,76,0.02,,,0.02,VWS V14.01,2013-01-28 13:51:00,
2013-01-28 14:56:00,49.6,42.7,29.85,ESE,117,5.0,8.0,77,0.02,,,0.02,VWS V14.01,2013-01-28 13:56:00,
2013-01-28 15:00:00,49.4,42.5,29.85,ESE,105,8.0,9.0,77,0.02,,,0.02,VWS V14.01,2013-01-28 14:00:00,
2013-01-28 15:01:00,49.5,42.6,29.85,ESE,107,2.0,8.0,77,0.02,,,0.02,VWS V14.01,2013-01-28 14:01:00,
2013-01-28 15:06:00,49.4,42.8,29.85,ESE,103,2.0,5.0,78,0.02,,,0.02,VWS V14.01,2013-01-28 14:06:00,
2013-01-28 15:10:00,49.3,42.7,29.86,East,96,6.0,8.0,78,0.02,,,0.02,VWS V14.01,2013-01-28 14:10:00,
2013-01-28 15:11:00,49.4,42.8,29.85,East,99,3.0,8.0,78,0.02,,,0.02,VWS V14.01,2013-01-28 14:11:00,
2013-01-28 15:16:00,49.3,42.7,29.86,East,93,7.0,8.0,78,0.02,,,0.02,VWS V14.01,2013-01-28 14:16:00,
2013-01-28 15:20:00,49.2,42.6,29.86,ESE,115,4.0,8.0,78,0.03,,,0.03,VWS V14.01,2013-01-28 14:20:00,
2013-01-28 15:21:00,49.2,42.6,29.86,East,92,1.0,8.0,78,0.03,,,0.03,VWS V14.01,2013-01-28 14:21:00,
2013-01-28 15:26:00,49.2,42.6,29.86,ESE,103,4.0,9.0,78,0.02,,,0.03,VWS V14.01,2013-01-28 14:26:00,
2013-01-28 15:30:00,49.1,42.9,29.86,East,96,6.0,9.0,79,0.02,,,0.03,VWS V14.01,2013-01-28 14:30:00,
2013-01-28 15:31:00,49.2,42.6,29.86,East,90,3.0,9.0,78,0.02,,,0.03,VWS V14.01,2013-01-28 14:31:00,
2013-01-28 15:36:00,49.1,42.9,29.86,East,98,3.0,7.0,79,0.02,,,0.03,VWS V14.01,2013-01-28 14:36:00,
2013-01-28 15:40:00,48.9,43.0,29.86,ESE,113,2.0,7.0,80,0.02,,,0.03,VWS V14.01,2013-01-28 14:40:00,
2013-01-28 15:41:00,48.9,43.0,29.86,East,90,5.0,7.0,80,0.02,,,0.03,VWS V14.01,2013-01-28 14:41:00,
2013-01-28 15:46:00,48.8,43.2,29.86,ESE,112,5.0,10.0,81,0.02,,,0.03,VWS V14.01,2013-01-28 14:46:00,
2013-01-28 15:50:00,48.7,43.5,29.85,East,91,6.0,10.0,82,0.03,,,0.04,VWS V14.01,2013-01-28 14:50:00,
2013-01-28 15:51:00,48.7,43.1,29.85,East,94,6.0,10.0,81,0.03,,,0.04,VWS V14.01,2013-01-28 14:51:00,
2013-01-28 15:56:00,48.6,43.4,29.85,ENE,67,4.0,7.0,82,0.02,,,0.04,VWS V14.01,2013-01-28 14:56:00,
2013-01-28 16:00:00,48.6,43.4,29.85,ESE,112,3.0,9.0,82,0.02,,,0.04,VWS V14.01,2013-01-28 15:00:00,
2013-01-28 16:01:00,48.6,43.4,29.85,East,90,3.0,9.0,82,0.02,,,0.04,VWS V14.01,2013-01-28 15:01:00,
2013-01-28 16:06:00,48.5,43.6,29.85,ENE,65,5.0,7.0,83,0.02,,,0.04,VWS V14.01,2013-01-28 15:06:00,
2013-01-28 16:10:00,48.4,43.5,29.85,East,79,7.0,9.0,83,0.03,,,0.05,VWS V14.01,2013-01-28 15:10:00,
2013-01-28 16:11:00,48.4,43.5,29.85,East,85,6.0,9.0,83,0.03,,,0.05,VWS V14.01,2013-01-28 15:11:00,
2013-01-28 16:16:00,48.4,43.8,29.85,East,80,5.0,7.0,84,0.03,,,0.05,VWS V14.01,2013-01-28 15:16:00,
2013-01-28 16:20:00,48.3,43.7,29.85,ENE,66,0.0,8.0,84,0.03,,,0.05,VWS V14.01,2013-01-28 15:20:00,
2013-01-28 16:21:00,48.3,43.7,29.85,ENE,66,4.0,8.0,84,0.03,,,0.05,VWS V14.01,2013-01-28 15:21:00,
2013-01-28 16:26:00,48.3,43.7,29.85,ENE,66,1.0,2.0,84,0.02,,,0.05,VWS V14.01,2013-01-28 15:26:00,
2013-01-28 16:30:00,48.2,43.9,29.86,ENE,69,5.0,8.0,85,0.02,,,0.05,VWS V14.01,2013-01-28 15:30:00,
2013-01-28 16:31:00,48.2,43.9,29.85,ESE,113,2.0,7.0,85,0.02,,,0.05,VWS V14.01,2013-01-28 15:31:00,
2013-01-28 16:36:00,48.3,44.0,29.85,East,80,2.0,5.0,85,0.02,,,0.05,VWS V14.01,2013-01-28 15:36:00,
2013-01-28 16:40:00,48.4,43.8,29.85,ENE,76,9.0,12.0,84,0.03,,,0.06,VWS V14.01,2013-01-28 15:40:00,
2013-01-28 16:41:00,48.4,44.1,29.85,East,96,7.0,11.0,85,0.03,,,0.06,VWS V14.01,2013-01-28 15:41:00,
2013-01-28 16:46:00,48.4,43.8,29.85,East,88,6.0,9.0,84,0.03,,,0.06,VWS V14.01,2013-01-28 15:46:00,
2013-01-28 16:50:00,48.5,43.9,29.86,East,101,10.0,15.0,84,0.04,,,0.07,VWS V14.01,2013-01-28 15:50:00,
2013-01-28 16:51:00,48.5,43.9,29.86,East,84,9.0,13.0,84,0.03,,,0.06,VWS V14.01,2013-01-28 15:51:00,
2013-01-28 16:56:00,48.4,43.8,29.85,ESE,119,3.0,10.0,84,0.03,,,0.07,VWS V14.01,2013-01-28 15:56:00,
2013-01-28 17:00:00,48.3,43.4,29.86,ESE,105,5.0,10.0,83,0.03,,,0.07,VWS V14.01,2013-01-28 16:00:00,
2013-01-28 17:01:00,48.4,43.8,29.85,ENE,76,8.0,10.0,84,0.03,,,0.07,VWS V14.01,2013-01-28 16:01:00,
2013-01-28 17:06:00,48.4,43.5,29.86,ENE,69,8.0,9.0,83,0.03,,,0.07,VWS V14.01,2013-01-28 16:06:00,
2013-01-28 17:10:00,48.6,43.7,29.86,ENE,77,7.0,12.0,83,0.03,,,0.07,VWS V14.01,2013-01-28 16:10:00,
2013-01-28 17:12:00,48.6,43.7,29.85,ENE,71,8.0,12.0,83,0.03,,,0.07,VWS V14.01,2013-01-28 16:12:00,
2013-01-28 17:16:00,48.6,43.7,29.86,ENE,77,8.0,8.0,83,0.02,,,0.07,VWS V14.01,2013-01-28 16:16:00,
2013-01-28 17:20:00,48.6,44.0,29.86,ESE,103,4.0,10.0,84,0.02,,,0.07,VWS V14.01,2013-01-28 16:20:00,
2013-01-28 17:22:00,48.5,43.9,29.86,SE,135,6.0,10.0,84,0.02,,,0.07,VWS V14.01,2013-01-28 16:22:00,
2013-01-28 17:27:00,48.6,44.0,29.86,East,86,10.0,13.0,84,0.02,,,0.07,VWS V14.01,2013-01-28 16:27:00,
2013-01-28 17:30:00,48.7,43.8,29.86,ENE,57,7.0,13.0,83,0.02,,,0.07,VWS V14.01,2013-01-28 16:30:00,
2013-01-28 17:31:00,48.7,43.8,29.86,ESE,105,7.0,13.0,83,0.02,,,0.07,VWS V14.01,2013-01-28 16:31:00,
2013-01-28 17:37:00,48.6,44.0,29.86,East,92,9.0,9.0,84,0.02,,,0.07,VWS V14.01,2013-01-28 16:37:00,
2013-01-28 17:40:00,48.6,44.0,29.87,East,88,9.0,12.0,84,0.03,,,0.08,VWS V14.01,2013-01-28 16:40:00,
2013-01-28 17:42:00,48.6,44.0,29.86,East,87,6.0,9.0,84,0.03,,,0.08,VWS V14.01,2013-01-28 16:42:00,
2013-01-28 17:47:00,48.7,44.1,29.87,East,99,7.0,11.0,84,0.02,,,0.08,VWS V14.01,2013-01-28 16:47:00,
2013-01-28 17:50:00,48.7,43.8,29.87,East,80,3.0,11.0,83,0.02,,,0.08,VWS V14.01,2013-01-28 16:50:00,
2013-01-28 17:52:00,48.7,43.8,29.87,ENE,69,3.0,11.0,83,0.02,,,0.08,VWS V14.01,2013-01-28 16:52:00,
2013-01-28 17:57:00,48.7,44.1,29.87,SE,134,0.0,5.0,84,0.01,,,0.08,VWS V14.01,2013-01-28 16:57:00,
2013-01-28 18:00:00,48.8,43.9,29.88,ENE,71,1.0,7.0,83,0.02,,,0.09,VWS V14.01,2013-01-28 17:00:00,
2013-01-28 18:02:00,48.7,44.1,29.88,East,82,6.0,6.0,84,0.02,,,0.09,VWS V14.01,2013-01-28 17:02:00,
2013-01-28 18:07:00,48.9,44.0,29.88,ENE,71,2.0,2.0,83,0.02,,,0.09,VWS V14.01,2013-01-28 17:07:00,
2013-01-28 18:10:00,48.9,43.7,29.88,East,93,10.0,16.0,82,0.02,,,0.09,VWS V14.01,2013-01-28 17:10:00,
2013-01-28 18:12:00,48.8,43.9,29.88,East,82,11.0,11.0,83,0.02,,,0.09,VWS V14.01,2013-01-28 17:12:00,
2013-01-28 18:17:00,49.0,43.8,29.88,ENE,61,4.0,11.0,82,0.03,,,0.10,VWS V14.01,2013-01-28 17:17:00,
2013-01-28 18:20:00,48.7,43.5,29.89,East,90,13.0,13.0,82,0.03,,,0.10,VWS V14.01,2013-01-28 17:20:00,
2013-01-28 18:22:00,48.8,43.6,29.88,ENE,65,2.0,11.0,82,0.03,,,0.10,VWS V14.01,2013-01-28 17:22:00,
2013-01-28 18:27:00,48.7,43.5,29.89,East,101,8.0,17.0,82,0.03,,,0.10,VWS V14.01,2013-01-28 17:27:00,
2013-01-28 18:30:00,48.6,43.4,29.88,East,90,5.0,17.0,82,0.04,,,0.11,VWS V14.01,2013-01-28 17:30:00,
2013-01-28 18:32:00,48.7,43.5,29.88,ENE,76,5.0,17.0,82,0.04,,,0.11,VWS V14.01,2013-01-28 17:32:00,
2013-01-28 18:37:00,48.6,43.4,29.89,ESE,102,7.0,13.0,82,0.04,,,0.11,VWS V14.01,2013-01-28 17:37:00,
2013-01-28 18:40:00,48.5,43.6,29.89,ENE,63,8.0,17.0,83,0.05,,,0.12,VWS V14.01,2013-01-28 17:40:00,
2013-01-28 18:42:00,48.6,43.4,29.89,East,84,5.0,17.0,82,0.05,,,0.12,VWS V14.01,2013-01-28 17:42:00,
2013-01-28 18:47:00,48.5,43.6,29.89,ENE,63,5.0,12.0,83,0.04,,,0.12,VWS V14.01,2013-01-28 17:47:00,
2013-01-28 18:50:00,48.4,43.5,29.89,ENE,78,8.0,12.0,83,0.04,,,0.12,VWS V14.01,2013-01-28 17:50:00,
2013-01-28 18:52:00,48.5,43.6,29.89,NE,46,6.0,12.0,83,0.04,,,0.12,VWS V14.01,2013-01-28 17:52:00,
2013-01-28 18:57:00,48.4,43.5,29.89,ENE,78,5.0,11.0,83,0.04,,,0.12,VWS V14.01,2013-01-28 17:57:00,
2013-01-28 19:00:00,48.2,43.6,29.89,ENE,63,5.0,11.0,84,0.04,,,0.12,VWS V14.01,2013-01-28 18:00:00,
2013-01-28 19:02:00,48.4,43.5,29.90,ENE,73,3.0,11.0,83,0.04,,,0.12,VWS V14.01,2013-01-28 18:02:00,
2013-01-28 19:07:00,48.3,43.7,29.90,ENE,61,5.0,7.0,84,0.04,,,0.13,VWS V14.01,2013-01-28 18:07:00,
2013-01-28 19:10:00,48.2,43.6,29.90,ENE,70,4.0,8.0,84,0.04,,,0.13,VWS V14.01,2013-01-28 18:10:00,
2013-01-28 19:12:00,48.2,43.6,29.90,ENE,70,2.0,8.0,84,0.04,,,0.13,VWS V14.01,2013-01-28 18:12:00,
2013-01-28 19:17:00,48.2,43.9,29.90,ENE,66,2.0,5.0,85,0.04,,,0.13,VWS V14.01,2013-01-28 18:17:00,
2013-01-28 19:20:00,48.4,43.8,29.90,NE,54,5.0,13.0,84,0.04,,,0.13,VWS V14.01,2013-01-28 18:20:00,
2013-01-28 19:22:00,48.3,43.7,29.90,ENE,61,10.0,13.0,84,0.04,,,0.13,VWS V14.01,2013-01-28 18:22:00,
2013-01-28 19:27:00,48.4,43.8,29.90,East,84,7.0,11.0,84,0.04,,,0.14,VWS V14.01,2013-01-28 18:27:00,
2013-01-28 19:30:00,48.4,43.8,29.90,ENE,78,7.0,11.0,84,0.04,,,0.14,VWS V14.01,2013-01-28 18:30:00,
2013-01-28 19:32:00,48.4,43.8,29.90,ENE,77,4.0,11.0,84,0.04,,,0.14,VWS V14.01,2013-01-28 18:32:00,
2013-01-28 19:37:00,48.5,43.6,29.90,East,87,6.0,10.0,83,0.03,,,0.14,VWS V14.01,2013-01-28 18:37:00,
2013-01-28 19:40:00,48.4,43.5,29.90,ENE,71,5.0,11.0,83,0.03,,,0.14,VWS V14.01,2013-01-28 18:40:00,
2013-01-28 19:42:00,48.4,43.5,29.91,ENE,61,8.0,10.0,83,0.03,,,0.14,VWS V14.01,2013-01-28 18:42:00,
2013-01-28 19:47:00,48.3,43.4,29.91,ENE,61,5.0,11.0,83,0.03,,,0.15,VWS V14.01,2013-01-28 18:47:00,
2013-01-28 19:50:00,48.4,43.2,29.91,ENE,71,9.0,19.0,82,0.03,,,0.15,VWS V14.01,2013-01-28 18:50:00,
2013-01-28 19:52:00,48.5,43.3,29.91,ENE,57,13.0,19.0,82,0.03,,,0.15,VWS V14.01,2013-01-28 18:52:00,
2013-01-28 19:57:00,48.2,43.3,29.91,ENE,74,10.0,11.0,83,0.03,,,0.15,VWS V14.01,2013-01-28 18:57:00,
2013-01-28 20:00:00,48.1,44.4,29.92,ENE,59,11.0,13.0,87,0.03,,,0.15,VWS V14.01,2013-01-28 19:00:00,
2013-01-28 20:02:00,48.1,43.2,29.91,NE,51,8.0,13.0,83,0.03,,,0.15,VWS V14.01,2013-01-28 19:02:00,
2013-01-28 20:07:00,48.1,43.2,29.92,ENE,76,12.0,12.0,83,0.03,,,0.15,VWS V14.01,2013-01-28 19:07:00,
2013-01-28 20:10:00,48.0,42.8,29.92,ENE,72,8.0,14.0,82,0.03,,,0.15,VWS V14.01,2013-01-28 19:10:00,
2013-01-28 20:12:00,48.1,42.9,29.92,ENE,65,9.0,14.0,82,0.03,,,0.15,VWS V14.01,2013-01-28 19:12:00,
2013-01-28 20:17:00,48.0,42.8,29.92,ENE,71,11.0,11.0,82,0.02,,,0.15,VWS V14.01,2013-01-28 19:17:00,
2013-01-28 20:20:00,48.1,42.6,29.92,NE,55,9.0,17.0,81,0.02,,,0.15,VWS V14.01,2013-01-28 19:20:00,
2013-01-28 20:22:00,48.2,42.7,29.92,ENE,59,11.0,17.0,81,0.02,,,0.15,VWS V14.01,2013-01-28 19:22:00,
2013-01-28 20:27:00,48.2,42.3,29.92,ENE,73,13.0,19.0,80,0.02,,,0.15,VWS V14.01,2013-01-28 19:27:00,
2013-01-28 20:30:00,48.2,42.3,29.92,NE,46,13.0,19.0,80,0.02,,,0.15,VWS V14.01,2013-01-28 19:30:00,
2013-01-28 20:32:00,48.2,42.3,29.92,East,81,8.0,19.0,80,0.02,,,0.15,VWS V14.01,2013-01-28 19:32:00,
2013-01-28 20:37:00,48.2,42.0,29.92,ENE,68,8.0,12.0,79,0.01,,,0.15,VWS V14.01,2013-01-28 19:37:00,
2013-01-28 20:40:00,48.0,41.8,29.93,ENE,63,7.0,14.0,79,0.01,,,0.15,VWS V14.01,2013-01-28 19:40:00,
2013-01-28 20:42:00,48.1,41.9,29.93,NE,40,6.0,14.0,79,0.01,,,0.15,VWS V14.01,2013-01-28 19:42:00,
2013-01-28 20:47:00,47.8,41.9,29.93,NE,55,6.0,9.0,80,0.01,,,0.15,VWS V14.01,2013-01-28 19:47:00,
2013-01-28 20:50:00,47.9,41.7,29.93,ENE,74,8.0,12.0,79,0.01,,,0.15,VWS V14.01,2013-01-28 19:50:00,
2013-01-28 20:52:00,48.0,41.8,29.93,ENE,58,8.0,12.0,79,0.01,,,0.15,VWS V14.01,2013-01-28 19:52:00,
2013-01-28 20:57:00,47.8,41.6,29.93,NE,45,7.0,9.0,79,0.00,,,0.15,VWS V14.01,2013-01-28 19:57:00,
2013-01-28 21:00:00,48.0,41.5,29.93,NE,51,10.0,14.0,78,0.00,,,0.15,VWS V14.01,2013-01-28 20:00:00,
2013-01-28 21:02:00,48.0,41.8,29.93,NE,34,10.0,14.0,79,0.00,,,0.15,VWS V14.01,2013-01-28 20:02:00,
2013-01-28 21:08:00,48.0,41.5,29.93,NE,54,7.0,16.0,78,0.00,,,0.15,VWS V14.01,2013-01-28 20:08:00,
2013-01-28 21:10:00,47.9,41.4,29.94,NE,43,6.0,17.0,78,0.00,,,0.15,VWS V14.01,2013-01-28 20:10:00,
2013-01-28 21:13:00,47.9,41.4,29.93,ENE,62,9.0,16.0,78,0.00,,,0.15,VWS V14.01,2013-01-28 20:13:00,
2013-01-28 21:18:00,47.8,41.3,29.93,ENE,59,8.0,12.0,78,0.00,,,0.15,VWS V14.01,2013-01-28 20:18:00,
2013-01-28 21:20:00,48.0,41.2,29.94,ENE,63,8.0,16.0,77,0.00,,,0.15,VWS V14.01,2013-01-28 20:20:00,
2013-01-28 21:23:00,48.0,41.2,29.94,ENE,66,13.0,16.0,77,0.00,,,0.15,VWS V14.01,2013-01-28 20:23:00,
2013-01-28 21:28:00,47.9,41.0,29.94,ENE,57,9.0,14.0,77,0.00,,,0.15,VWS V14.01,2013-01-28 20:28:00,
2013-01-28 21:30:00,47.7,41.2,29.94,ENE,65,10.0,17.0,78,0.00,,,0.15,VWS V14.01,2013-01-28 20:30:00,
2013-01-28 21:33:00,47.8,41.3,29.94,NE,55,6.0,17.0,78,0.00,,,0.15,VWS V14.01,2013-01-28 20:33:00,
2013-01-28 21:38:00,47.6,41.1,29.95,ENE,61,14.0,14.0,78,0.00,,,0.15,VWS V14.01,2013-01-28 20:38:00,
2013-01-28 21:40:00,47.5,41.3,29.95,ENE,64,7.0,16.0,79,0.00,,,0.15,VWS V14.01,2013-01-28 20:40:00,
2013-01-28 21:43:00,47.5,41.3,29.95,NNE,19,12.0,16.0,79,0.00,,,0.15,VWS V14.01,2013-01-28 20:43:00,
2013-01-28 21:48:00,47.5,41.3,29.95,ENE,74,12.0,14.0,79,0.01,,,0.16,VWS V14.01,2013-01-28 20:48:00,
2013-01-28 21:50:00,47.5,41.0,29.95,NE,48,12.0,20.0,78,0.01,,,0.16,VWS V14.01,2013-01-28 20:50:00,
2013-01-28 21:53:00,47.6,41.1,29.95,NE,47,6.0,20.0,78,0.01,,,0.16,VWS V14.01,2013-01-28 20:53:00,
2013-01-28 21:58:00,47.6,41.1,29.95,NE,46,10.0,18.0,78,0.01,,,0.16,VWS V14.01,2013-01-28 20:58:00,
2013-01-28 22:00:00,47.5,41.3,29.95,NE,54,10.0,22.0,79,0.01,,,0.16,VWS V14.01,2013-01-28 21:00:00,
2013-01-28 22:03:00,47.5,41.3,29.95,ENE,75,8.0,22.0,79,0.01,,,0.16,VWS V14.01,2013-01-28 21:03:00,
2013-01-28 22:08:00,47.6,41.1,29.95,NE,53,10.0,19.0,78,0.01,,,0.16,VWS V14.01,2013-01-28 21:08:00,
2013-01-28 22:10:00,47.5,41.3,29.96,East,82,8.0,19.0,79,0.01,,,0.16,VWS V14.01,2013-01-28 21:10:00,
2013-01-28 22:13:00,47.5,41.0,29.95,East,93,9.0,19.0,78,0.01,,,0.16,VWS V14.01,2013-01-28 21:13:00,
2013-01-28 22:18:00,47.6,41.1,29.96,NE,53,9.0,16.0,78,0.01,,,0.16,VWS V14.01,2013-01-28 21:18:00,
2013-01-28 22:20:00,47.6,41.1,29.96,NNE,19,8.0,16.0,78,0.01,,,0.16,VWS V14.01,2013-01-28 21:20:00,
2013-01-28 22:23:00,47.6,41.1,29.96,ENE,62,14.0,16.0,78,0.01,,,0.16,VWS V14.01,2013-01-28 21:23:00,
2013-01-28 22:28:00,47.6,41.1,29.96,East,79,13.0,16.0,78,0.01,,,0.16,VWS V14.01,2013-01-28 21:28:00,
2013-01-28 22:30:00,47.7,40.8,29.96,NE,38,11.0,16.0,77,0.01,,,0.16,VWS V14.01,2013-01-28 21:30:00,
2013-01-28 22:33:00,47.7,40.8,29.96,NE,41,10.0,16.0,77,0.01,,,0.16,VWS V14.01,2013-01-28 21:33:00,
2013-01-28 22:38:00,47.8,41.0,29.96,NE,51,7.0,15.0,77,0.01,,,0.16,VWS V14.01,2013-01-28 21:38:00,
2013-01-28 22:40:00,48.0,40.8,29.96,NE,39,8.0,15.0,76,0.01,,,0.16,VWS V14.01,2013-01-28 21:40:00,
2013-01-28 22:43:00,48.0,40.8,29.96,NE,51,6.0,15.0,76,0.01,,,0.16,VWS V14.01,2013-01-28 21:43:00,
2013-01-28 22:48:00,48.1,40.9,29.96,ENE,67,13.0,15.0,76,0.01,,,0.16,VWS V14.01,2013-01-28 21:48:00,
2013-01-28 22:50:00,48.2,40.7,29.97,ENE,72,9.0,15.0,75,0.01,,,0.16,VWS V14.01,2013-01-28 21:50:00,
2013-01-28 22:53:00,48.2,40.7,29.96,NE,49,9.0,15.0,75,0.01,,,0.16,VWS V14.01,2013-01-28 21:53:00,
2013-01-28 22:58:00,48.4,40.5,29.97,ENE,63,7.0,12.0,74,0.00,,,0.16,VWS V14.01,2013-01-28 21:58:00,
2013-01-28 23:00:00,48.5,40.2,29.97,NE,37,7.0,16.0,73,0.00,,,0.16,VWS V14.01,2013-01-28 22:00:00,
2013-01-28 23:03:00,48.5,40.2,29.96,NE,38,7.0,16.0,73,0.00,,,0.16,VWS V14.01,2013-01-28 22:03:00,
2013-01-28 23:08:00,48.6,40.0,29.96,NE,37,10.0,14.0,72,0.00,,,0.16,VWS V14.01,2013-01-28 22:08:00,
2013-01-28 23:10:00,48.5,39.9,29.97,ENE,68,5.0,14.0,72,0.00,,,0.16,VWS V14.01,2013-01-28 22:10:00,
2013-01-28 23:13:00,48.6,40.0,29.97,NE,54,11.0,14.0,72,0.00,,,0.16,VWS V14.01,2013-01-28 22:13:00,
2013-01-28 23:18:00,48.2,40.0,29.97,ENE,57,9.0,9.0,73,0.00,,,0.16,VWS V14.01,2013-01-28 22:18:00,
2013-01-28 23:20:00,48.1,39.9,29.97,NE,49,7.0,11.0,73,0.00,,,0.16,VWS V14.01,2013-01-28 22:20:00,
2013-01-28 23:23:00,48.1,39.9,29.97,NNE,24,5.0,11.0,73,0.00,,,0.16,VWS V14.01,2013-01-28 22:23:00,
2013-01-28 23:28:00,47.9,40.0,29.98,NNE,26,10.0,12.0,74,0.00,,,0.16,VWS V14.01,2013-01-28 22:28:00,
2013-01-28 23:30:00,47.6,40.1,29.98,NE,49,7.0,12.0,75,0.00,,,0.16,VWS V14.01,2013-01-28 22:30:00,
2013-01-28 23:33:00,47.7,39.8,29.98,NE,37,9.0,12.0,74,0.00,,,0.16,VWS V14.01,2013-01-28 22:33:00,
2013-01-28 23:38:00,47.8,39.9,29.98,NE,43,7.0,11.0,74,0.00,,,0.16,VWS V14.01,2013-01-28 22:38:00,
2013-01-28 23:40:00,47.6,39.7,29.98,NE,42,5.0,12.0,74,0.00,,,0.16,VWS V14.01,2013-01-28 22:40:00,
2013-01-28 23:43:00,47.6,39.7,29.98,NNE,28,7.0,12.0,74,0.00,,,0.16,VWS V14.01,2013-01-28 22:43:00,
2013-01-28 23:49:00,47.3,39.8,29.98,NE,39,6.0,9.0,75,0.00,,,0.16,VWS V14.01,2013-01-28 22:49:00,
2013-01-28 23:50:00,47.6,39.7,29.98,ENE,62,7.0,13.0,74,0.00,,,0.16,VWS V14.01,2013-01-28 22:50:00,
2013-01-28 23:54:00,47.5,39.6,29.98,NNE,32,7.0,10.0,74,0.00,,,0.16,VWS V14.01,2013-01-28 22:54:00,
2013-01-28 23:59:00,47.6,39.7,29.98,NNE,28,5.0,10.0,74,0.00,,,0.16,VWS V14.01,2013-01-28 22:59:00,